Regional Weather Roundup
Issued by NWS Goodland, KS

Home | Current Version | Previous Version | Graphics & Text | Print | Product List | Glossary On
Versions: 1 2 3 4 5 6 7 8 9 10 11 12 13 14 15 16 17 18 19 20 21 22 23 24 25 26 27 28 29 30 31 32 33 34 35 36 37 38 39 40 41 42 43 44 45 46 47 48 49 50
000
ASUS43 KGLD 070208
RWRGLD

GOODLAND FORECAST AREA HOURLY WEATHER ROUNDUP
NATIONAL WEATHER SERVICE GOODLAND KS
700 PM MST FRI MAR 06 2015

...OFFICIAL OBSERVATIONS...

CITY           SKY/WX    TMP DP  RH WIND       PRES   REMARKS
GOODLAND KS    CLEAR     45  21  38 SW12      30.23R
HILL CITY KS   CLEAR     48  14  25 W8        30.19R
IMPERIAL NEB     N/A     46  14  27 NW7       30.19R
MCCOOK NEB     CLEAR     50  16  25 SW7       30.16S
AKRON CO       CLEAR     42  16  34 NE5       30.23R
BURLINGTON CO  CLEAR     34  23  64 SW10      30.24R
LIMON CO       CLEAR     29  22  75 W6        30.26R
$$

...UNOFFICIAL OBSERVATIONS...

CITY           SKY/WX    TMP DP  RH WIND       PRES   REMARKS
LENORA KS        N/A     47  32  56 S12         N/A
TRIBUNE KS     CLEAR     46  30  53 S5        30.26R
$$



USA.gov is the U.S. government's official web portal to all federal, state and local government web resources and services.